Regional Weather Roundup
Issued by NWS

Home | Current Version | Previous Version | Text Only | Print | Product List | Glossary On
Versions: 1 2 3 4 5 6 7 8 9 10 11 12 13 14 15 16 17 18 19 20 21 22 23 24 25 26 27 28 29 30 31 32 33 34 35 36 37 38 39 40 41 42 43 44 45 46 47 48 49 50
000
ASUS43 KTOP 302008
RWRKS

WEATHER ROUNDUP FOR KANSAS
NATIONAL WEATHER SERVICE GOODLAND KS
200 PM CST FRI JAN 30 2015

NOTE:  "FAIR" INDICATES FEW OR NO CLOUDS BELOW 12,000 FEET WITH NO
SIGNIFICANT WEATHER AND/OR OBSTRUCTIONS TO VISIBILITY.

KSZ001>006-013>018-027>032-041>047-302100-
NORTHWEST KANSAS

CITY           SKY/WX    TMP DP  RH WIND       PRES   REMARKS
GOODLAND       CLOUDY    45  33  63 S21G29    30.19F
HAYS           CLOUDY    45  25  45 S20       30.33F
HILL CITY      CLOUDY    46  25  43 S14G21    30.29F
RUSSELL        CLOUDY    44  27  51 S18       30.33F
$$

KSZ061>065-074>080-084>089-302100-
SOUTHWEST KANSAS

CITY           SKY/WX    TMP DP  RH WIND       PRES   REMARKS
DODGE CITY     CLOUDY    42  24  49 S13G21    30.34F
ELKHART          N/A     43  23  45 S16         N/A
GARDEN CITY    CLOUDY    41  25  53 S18       30.30F
LIBERAL        CLOUDY    45  27  49 S17       30.34F
PRATT          CLOUDY    41  23  48 S13       30.39F
$$

KSZ066>073-081>083-090>101-302100-
SOUTHEAST KANSAS

CITY           SKY/WX    TMP DP  RH WIND       PRES   REMARKS
CHANUTE        SUNNY     42  25  50 VRB3      30.45F
COFFEYVILLE    MOSUNNY   43  25  49 NE3       30.46F
HUTCHINSON     CLOUDY    43  27  53 S13       30.41F
MEDICINE LODGE   N/A     42  26  53 S10       30.40F
NEWTON         CLOUDY    41  25  52 S9        30.43F
PARSONS        MOSUNNY   42  25  50 SE5       30.46F
WICHITA INTL   CLOUDY    42  25  50 S7        30.43F
WICHITA JABRA  CLOUDY    41  25  53 S7        30.43F
WICHITA MCCONL CLOUDY    43  26  51 S6        30.43F
WINFIELD       CLOUDY    44  23  43 S6        30.44F
$$

KSZ007>012-019>026-033>040-048>060-102>105-302100-
NORTHEAST KANSAS

CITY           SKY/WX    TMP DP  RH WIND       PRES   REMARKS
CONCORDIA      PTSUNNY   43  27  53 S14       30.39F
EMPORIA        PTSUNNY   40  25  55 MISG      30.43F
LAWRENCE       MOSUNNY   37  22  54 CALM      30.47F
MANHATTAN      PTSUNNY   43  27  53 S6        30.43F
MARYSVILLE     PTSUNNY   41  27  56 S9        30.41F
OLATHE IND     MOSUNNY   37  21  52 SE6       30.46F
OLATHE EXE     MOSUNNY   38  19  46 MISG      30.45F
SALINA         CLOUDY    45  26  47 S12       30.41F
TOPEKA BILLARD PTSUNNY   38  23  55 VRB3      30.46F
TOPEKA FORBES  PTSUNNY   40  23  50 SE6       30.45F
$$


USA.gov is the U.S. government's official web portal to all federal, state and local government web resources and services.